FENGYUN 1C DEB

Satellite information

Favourite Embed

Satellite Type and Status

DEBRISIN ORBIT

Key statistics

Satellite FENGYUN 1C DEB at a glance.

Uptime

9617

Days in orbit

Revolutions

≈ 14.2

Per day

Orbit

SSO

Sun Synchronous Orbit

Inclination

99.4

Latest

Satellite identification and parameters

Extended collection of information and parameters for FENGYUN 1C DEB.

Object identification

Identified? True

Debris? True

Object name: FENGYUN 1C DEB

International designator: 1999-025VJ

Object number (NORAD): 30201

Object ID (CCSDS): 30201

Country: PEOPLES REPUBLIC OF CHINA (PRC)

Current information (Y/N): Y

RCS size: SMALL

Orbital parameters

Period: 101.22 minutes

Inclination: 99.3907 deg

SMA: 7194.566 km

Apoapsis: 837.406 km

Periapsis: 795.457 km

RAAN: 17.4052 deg

Eccentricy: 0.00291534

Argument of periapsis: 226.1426 deg

Mean anomaly: 133.734 deg

Mean motion: 14.22642712 rev/day

Mean motion (dot): 0.00001512 rev/day2

B* drag term: 0.0006952936 1/REarth

Two-line elements (TLE)

Creation date: Sept. 7, 2025, 3:09 a.m.

Reference frame: TEME

Reference center: EARTH

Epoch: Sept. 6, 2025, 2:50 p.m. UTC

TLE line 0: 0 FENGYUN 1C DEB

TLE line 1: 1 30201U 99025VJ 25249.61844673 .00001512 00000-0 69529-3 0 9995

TLE line 2: 2 30201 99.3907 17.4052 0029153 226.1426 133.7340 14.22642712964468

Live tracking on map

Real-time ground track for satellite FENGYUN 1C DEB.

In-orbit conjunctions

A list of the most updated potential collisions computed for object FENGYUN 1C DEB.

Target Orbit TCA Probability of collision Miss distance Type
FENGYUN 1C DEB SSO 2024-11-15 20:41:27 0.0001875005 474.0 (m) DEBRIS
FENGYUN 1C DEB SSO 2024-11-09 05:20:47 0.0004927903 479.0 (m) DEBRIS
SL-16 R/B LEO 2024-10-15 22:34:30 0.0004827751 168.0 (m) ROCKET BODY

Associated space launch

Chinese polar orbiting meteorological satellite

FENGYUN 1C DEB was lifted into orbit during the mission ‘Long March 4B | Feng Yun 1C’, on board a Long March 4B space rocket.

The launch took place on May 10, 1999, 1:33 a.m. from Launch Complex 7.

For more information about the launch, click the button.

Launch to space Long March 4B | Feng Yun 1C
Long March 4B | Feng Yun 1C

Agency: N/A

Status: Launch Successful

Launch date: May 10, 1999, 1:33 a.m. UTC

Rocket: Long March 4B

Launch pad: Launch Complex 7

Location: Taiyuan Satellite Launch Center, People's Republic of China

...

Latest news about this satellite

There are no fresh news available about this satellite. Check back as we update our databases every day.


Newsletter sign-up

Weekly statistics, charts and insights to help you stay on top of the space industry.